Meath Environmental Platform

Observations

Time Sensor AQI SAQ Temp °C Hum % Pres Pa CO μg/m³ H₂S μg/m³ NO μg/m³ NO₂ μg/m³ O₃ μg/m³ SO₂ μg/m³ CO₂e PPM VOC PPM PM1 μg/m³ PM2.5 μg/m³ PM4 μg/m³ PM10 μg/m³ TPS µm
Thursday 13 August 2026
04:13 Trim Patrick St 2 20.9 77 38,460 0 8.48 1.45 20 22.23 4.65 8 12.45 13.7
04:12 Trim Patrick St 2 20.9 76 38,460 0 6.74 1.24 16.75 33.45 5.33 6.29 9.76 10.73
04:11 Trim Market St 2 21.5 74 32,506 0.01 0 1.19 12.69 40.13 0 2.85 4.78 8.13
04:11 Trim Patrick St 2 20.9 77 38,460 0 6.24 1.29 12.05 36.77 5.69 5.43 8.97 9.87
04:10 Trim Patrick St 2 20.9 78 38,460 0 10.49 1.34 25.02 25.05 4.43 7.14 11.02 12.12
04:09 Trim Market St 2 21.5 74 33,030 0.02 0 1.19 13.74 41.57 0 2.14 3.35 5.72
04:09 Trim Patrick St 2 20.9 76 38,460 0 7.48 1.3 17.02 28.71 5.23 7.14 10.46 11.5
04:08 Trim Market St 2 21.5 74 33,365 0.02 0 1.12 13.32 40.7 0 3.56 5.75 8.74
04:08 Trim Patrick St 2 20.9 78 38,460 0 8.8 1.44 19.97 31.09 5.03 7.14 10.32 11.35
04:07 Trim Patrick St 2 20.9 78 38,460 0 7.32 1.47 20.39 22.16 4.82 5.43 10.3 11.33
04:05 Trim Patrick St 2 21 77 38,460 0 5.47 1.46 13.18 37.57 5.81 8 11.74 12.91
04:03 Trim Patrick St 2 21 78 38,460 0 9.83 1.48 28.33 21.83 5.03 8 13.11 14.42
04:02 Trim Patrick St 2 21 78 38,460 0 10.14 1.49 14.06 28.3 5.42 5.43 9.59 10.55
04:01 Trim Patrick St 2 21 76 38,460 0 12.88 1.32 28.62 32.87 5.31 7.14 11.13 12.24
04:00 Trim Patrick St 2 21 77 38,460 0 8.01 1.3 22.42 27.4 5.25 5.43 9.62 10.59
03:59 Trim Patrick St 2 21 78 38,460 0 6.53 1.24 14.9 27.53 5.28 7.14 10.31 11.34
03:53 Trim Patrick St 2 21 78 38,460 0 10.01 1.36 13.79 35.84 5.85 5.43 8.9 9.79
03:52 Trim Patrick St 2 21 78 38,460 0 11.93 1.35 18.89 27.39 5.48 8.86 12.44 13.68
03:51 Trim Patrick St 2 21 78 38,460 0 10.7 1.37 38.06 22.7 4.92 7.14 11.03 12.13
03:50 Trim Patrick St 2 21 78 38,460 0 8.69 1.33 17.06 32.28 5.9 8 11.73 12.91